This is the latest recevied weather packets stored in our database for station/object KJ5JYX. If no packets are shown the sender has not sent any weather packets the latest 10 day(s).
| Time | Temp. | Humidity | Pressure | Rain* | Wind** | Luminosity | Snow |
|---|---|---|---|---|---|---|---|
| 1777924065 | 27.78° C | 61% | 1012.3 hPa | 0 mm | - | 670 W/m² | - |
| 1777923761 | 28.33° C | 59% | 1012.2 hPa | 0 mm | - | 461 W/m² | - |
| 1777923457 | 27.78° C | 59% | 1012.4 hPa | 0 mm | - | 564 W/m² | - |
| 1777923155 | 28.33° C | 60% | 1012.5 hPa | 0 mm | - | 614 W/m² | - |
| 1777922853 | 27.78° C | 62% | 1012.3 hPa | 0 mm | - | 585 W/m² | - |
| 1777922551 | 27.78° C | 62% | 1012.6 hPa | 0 mm | - | 590 W/m² | - |
| 1777922249 | 27.22° C | 60% | 1012.7 hPa | 0 mm | - | 668 W/m² | - |
| 1777921946 | 27.22° C | 61% | 1012.6 hPa | 0 mm | - | 565 W/m² | - |
| 1777921641 | 27.22° C | 61% | 1012.6 hPa | 0 mm | - | 483 W/m² | - |
| 1777921338 | 27.78° C | 61% | 1013.1 hPa | 0 mm | - | 464 W/m² | - |
| 1777921035 | 26.67° C | 62% | 1012.8 hPa | 0 mm | - | 762 W/m² | - |
| 1777920731 | 26.67° C | 62% | 1013.2 hPa | 0 mm | - | 388 W/m² | - |
| 1777920427 | 27.22° C | 62% | 1013.3 hPa | 0 mm | - | 606 W/m² | - |
| 1777920123 | 27.22° C | 61% | 1013.3 hPa | 0 mm | - | 641 W/m² | - |
| 1777919819 | 26.67° C | 63% | 1013.4 hPa | 0 mm | - | 681 W/m² | - |
| 1777919516 | 27.22° C | 61% | 1013.2 hPa | 0 mm | - | 511 W/m² | - |
| 1777919214 | 26.67° C | 65% | 1013.2 hPa | 0 mm | - | 687 W/m² | - |
| 1777918912 | 26.67° C | 63% | 1013.5 hPa | 0 mm | - | 447 W/m² | - |
| 1777918609 | 26.67° C | 63% | 1013.6 hPa | 0 mm | - | 703 W/m² | - |
| 1777918307 | 26.67° C | 64% | 1014 hPa | 0 mm | - | 642 W/m² | - |
| 1777918005 | 26.11° C | 65% | 1013.9 hPa | 0 mm | - | 648 W/m² | - |
| 1777917704 | 25.56° C | 65% | 1014.1 hPa | 0 mm | - | 261 W/m² | - |
| 1777917401 | 25° C | 69% | 1014.3 hPa | 0 mm | - | 499 W/m² | - |
| 1777917097 | 25° C | 68% | 1014.2 hPa | 0 mm | - | 299 W/m² | - |
| 1777916796 | 25.56° C | 66% | 1014.1 hPa | 0 mm | - | 466 W/m² | - |
* Rain latest hour (hover to see other rain measurements)
** Current wind speed in m/s (hover to see current wind gust speed)